Simultaneous Nadir Overpasses (SNOs) Predictions

Prediction of SNOs between METOP-B and NOAA-19 Satellite Orbit:

Table of predicted SNOs for the next 14.0 days since TLE Epoch: 8/26/2023
Index Date (METOP-B) Time (METOP-B) Lat,Lon (METOP-B) SZA (METOP-B ) Date (NOAA-19) Time (NOAA-19) Lat,Lon (NOAA-19) SZA (NOAA-19 ) Distance(km) Time Diff (sec)
1 09/01/2023 09:41:18 80.84, 67.07 73.96 09/01/2023 09:40:08 80.83, 66.89 73.92 3.27 70
2 09/01/2023 10:31:59 -80.84,-125.59 106.03 09/01/2023 10:31:12 -80.84,-125.72 106.06 2.24 47
3 09/01/2023 11:22:39 80.85, 41.92 74.01 09/01/2023 11:22:05 80.85, 42.09 74.02 3.05 34
4 09/01/2023 12:13:20 -80.85,-150.75 105.98 09/01/2023 12:13:10 -80.85,-150.89 106.00 2.52 10
5 09/01/2023 13:04:01 80.84, 16.41 74.02 09/01/2023 13:04:04 80.85, 16.55 74.04 2.72 3
6 09/01/2023 13:54:41 -80.86,-175.90 105.93 09/01/2023 13:55:08 -80.85,-176.06 105.94 2.81 27
7 09/01/2023 14:45:22 80.85, -8.75 74.07 09/01/2023 14:46:02 80.86, -8.62 74.10 2.37 40



Historial Predications of SNOs between METOP-B and NOAA-19
